Location: *
(49.7115°N, 15.0136°E)
Time: 17:55:01
(UTC+00:00)

USA 234 - Pass Details

Date: 27 February 2020
Orbit: 1101 x 1107 km, 123.0° (Epoch: 03 April)

Event Time Altitude Azimuth Distance (km) Brightness Sun altitude
Exits shadow 18:55:19 33° 65° (ENE) 1,772 3.9 -22.8°
Maximum altitude 18:57:59 51° 10° (N) 1,369 3.7 -23.2°
Drops below altitude 10° 19:04:15 10° 298° (WNW) 2,966 6.6 -24.2°
Sets 19:06:48 0° 293° (WNW) 3,926 7.5 -24.6°
